• En España
  • Lista de países
  • Para 7 días
  • Temperatura del agua
  • Mapa Satelital
  • El tiempo en el mapa
  • Informadores
  • user-avatar
    Iniciar sesión

    Tiempo cada hora Sucre

    Hoy, 15 Noviembre, Jueves

    Tiempo Temperatura Precipitaciones Viento Presión Humedad
    00:00 +15°C° 0.1 mm 2 mps 540 mmHg 83%
    01:00 +15°C° 0.1 mm 2 mps 540 mmHg 84%
    02:00 +15°C° 0.1 mm 2 mps 540 mmHg 85%
    03:00 +14°C° 0.1 mm 2 mps 540 mmHg 85%
    04:00 +14°C° 0.1 mm 2 mps 540 mmHg 86%
    05:00 +14°C° 0.1 mm 2 mps 540 mmHg 86%
    06:00 +14°C° 0.1 mm 2 mps 540 mmHg 84%
    07:00 +14°C° 0.1 mm 2 mps 541 mmHg 83%
    08:00 +15°C° 0.1 mm 2 mps 541 mmHg 81%
    09:00 +16°C° 0 mm 2 mps 541 mmHg 73%
    10:00 +18°C° 0 mm 2 mps 542 mmHg 66%
    11:00 +19°C° 0 mm 3 mps 543 mmHg 59%
    12:00 +20°C° 0.1 mm 3 mps 542 mmHg 56%
    13:00 +20°C° 0.1 mm 3 mps 542 mmHg 54%
    14:00 +21°C° 0.1 mm 4 mps 542 mmHg 51%
    15:00 +21°C° 0 mm 4 mps 541 mmHg 53%
    16:00 +20°C° 0 mm 4 mps 541 mmHg 56%
    17:00 +20°C° 0 mm 4 mps 540 mmHg 58%
    18:00 +19°C° 0.5 mm 3 mps 540 mmHg 62%
    19:00 +18°C° 0.5 mm 3 mps 540 mmHg 66%
    20:00 +17°C° 0.5 mm 2 mps 540 mmHg 70%
    21:00 +17°C° 0.1 mm 2 mps 541 mmHg 72%
    22:00 +16°C° 0.1 mm 2 mps 541 mmHg 74%
    23:00 +16°C° 0.1 mm 1 mps 541 mmHg 76%

    Mañana, 16 Noviembre, Viernes

    Tiempo Temperatura Precipitaciones Viento Presión Humedad
    00:00 +15°C° 0 mm 1 mps 541 mmHg 78%
    01:00 +15°C° 0 mm 1 mps 540 mmHg 81%
    02:00 +15°C° 0 mm 1 mps 539 mmHg 83%
    03:00 +14°C° 0 mm 1 mps 539 mmHg 84%
    04:00 +14°C° 0 mm 1 mps 539 mmHg 85%
    05:00 +13°C° 0 mm 0 mps 539 mmHg 86%
    06:00 +15°C° 0 mm 1 mps 540 mmHg 81%
    07:00 +16°C° 0 mm 1 mps 540 mmHg 76%
    08:00 +16°C° 0 mm 1 mps 541 mmHg 71%
    09:00 +18°C° 0 mm 2 mps 542 mmHg 63%
    10:00 +19°C° 0 mm 2 mps 542 mmHg 55%
    11:00 +21°C° 0 mm 3 mps 543 mmHg 47%
    12:00 +22°C° 0.2 mm 4 mps 543 mmHg 46%
    13:00 +22°C° 0.2 mm 4 mps 542 mmHg 44%
    14:00 +23°C° 0.2 mm 5 mps 542 mmHg 42%
    15:00 +22°C° 0.1 mm 5 mps 542 mmHg 45%
    16:00 +21°C° 0.1 mm 6 mps 541 mmHg 48%
    17:00 +20°C° 0.1 mm 6 mps 540 mmHg 51%
    18:00 +20°C° 0.4 mm 5 mps 540 mmHg 56%
    19:00 +19°C° 0.4 mm 4 mps 541 mmHg 61%
    20:00 +18°C° 0.4 mm 2 mps 541 mmHg 66%
    21:00 +17°C° 0.3 mm 2 mps 541 mmHg 68%
    22:00 +17°C° 0.3 mm 2 mps 541 mmHg 70%
    23:00 +16°C° 0.3 mm 1 mps 541 mmHg 72%

    Pasado mañana, 17 Noviembre, Sábado

    Tiempo Temperatura Precipitaciones Viento Presión Humedad
    00:00 +16°C° 0.2 mm 1 mps 540 mmHg 74%
    01:00 +16°C° 0.2 mm 2 mps 540 mmHg 76%
    02:00 +15°C° 0.2 mm 2 mps 539 mmHg 78%
    03:00 +15°C° 0.1 mm 2 mps 539 mmHg 78%
    04:00 +15°C° 0.1 mm 2 mps 539 mmHg 78%
    05:00 +15°C° 0.1 mm 2 mps 539 mmHg 78%
    06:00 +15°C° 0.2 mm 2 mps 539 mmHg 76%
    07:00 +16°C° 0.2 mm 2 mps 540 mmHg 74%
    08:00 +16°C° 0.2 mm 2 mps 540 mmHg 72%
    09:00 +17°C° 0.8 mm 2 mps 540 mmHg 68%
    10:00 +18°C° 0.8 mm 2 mps 541 mmHg 63%
    11:00 +19°C° 0.8 mm 3 mps 541 mmHg 59%
    12:00 +20°C° 0.8 mm 3 mps 541 mmHg 55%
    13:00 +21°C° 0.8 mm 3 mps 540 mmHg 52%
    14:00 +21°C° 0.8 mm 2 mps 540 mmHg 48%
    15:00 +21°C° 0.6 mm 2 mps 540 mmHg 48%
    16:00 +21°C° 0.6 mm 3 mps 539 mmHg 48%
    17:00 +21°C° 0.6 mm 3 mps 539 mmHg 48%
    18:00 +20°C° 0.2 mm 2 mps 539 mmHg 52%
    19:00 +20°C° 0.2 mm 2 mps 539 mmHg 56%
    20:00 +19°C° 0.2 mm 2 mps 539 mmHg 60%
    21:00 +18°C° 0.1 mm 2 mps 540 mmHg 63%
    22:00 +19°C° 0.1 mm 1 mps 540 mmHg 66%
    23:00 +18°C° 0.1 mm 1 mps 540 mmHg 70%

    18 Noviembre, Domingo

    Tiempo Temperatura Precipitaciones Viento Presión Humedad
    00:00 +18°C° 0 mm 1 mps 539 mmHg 72%
    01:00 +16°C° 0 mm 1 mps 539 mmHg 74%
    02:00 +15°C° 0 mm 0 mps 539 mmHg 77%
    03:00 +15°C° 0 mm 0 mps 539 mmHg 79%
    04:00 +14°C° 0 mm 0 mps 538 mmHg 81%
    05:00 +14°C° 0 mm 0 mps 538 mmHg 83%
    06:00 +16°C° 0.4 mm 1 mps 539 mmHg 77%
    07:00 +18°C° 0.4 mm 1 mps 541 mmHg 71%
    08:00 +18°C° 0.4 mm 2 mps 542 mmHg 65%
    09:00 +19°C° 1.9 mm 3 mps 542 mmHg 63%
    10:00 +19°C° 1.9 mm 3 mps 543 mmHg 62%
    11:00 +20°C° 1.9 mm 4 mps 543 mmHg 60%
    12:00 +19°C° 2.2 mm 3 mps 542 mmHg 63%
    13:00 +18°C° 2.2 mm 3 mps 542 mmHg 67%
    14:00 +18°C° 2.2 mm 3 mps 541 mmHg 70%
    15:00 +17°C° 0.9 mm 3 mps 541 mmHg 72%
    16:00 +15°C° 0.9 mm 4 mps 540 mmHg 74%
    17:00 +15°C° 0.9 mm 4 mps 540 mmHg 76%
    18:00 +14°C° 0.6 mm 3 mps 540 mmHg 78%
    19:00 +13°C° 0.6 mm 3 mps 540 mmHg 81%
    20:00 +12°C° 0.6 mm 3 mps 541 mmHg 84%
    21:00 +12°C° 1 mm 3 mps 541 mmHg 85%
    22:00 +12°C° 1 mm 2 mps 541 mmHg 86%
    23:00 +12°C° 1 mm 2 mps 541 mmHg 87%

    19 Noviembre, Lunes

    Tiempo Temperatura Precipitaciones Viento Presión Humedad
    00:00 +12°C° 0.8 mm 2 mps 541 mmHg 87%
    01:00 +12°C° 0.8 mm 2 mps 540 mmHg 87%
    02:00 +10°C° 0.8 mm 2 mps 540 mmHg 87%
    03:00 +11°C° 0.1 mm 1 mps 540 mmHg 85%
    04:00 +12°C° 0.1 mm 1 mps 540 mmHg 84%
    05:00 +12°C° 0.1 mm 1 mps 540 mmHg 83%
    06:00 +12°C° 0 mm 1 mps 540 mmHg 81%
    07:00 +12°C° 0 mm 1 mps 541 mmHg 80%
    08:00 +13°C° 0 mm 1 mps 541 mmHg 78%
    09:00 +14°C° 0 mm 1 mps 541 mmHg 73%
    10:00 +15°C° 0 mm 1 mps 542 mmHg 67%
    11:00 +16°C° 0 mm 1 mps 542 mmHg 62%
    12:00 +17°C° 0 mm 2 mps 542 mmHg 58%
    13:00 +18°C° 0 mm 2 mps 542 mmHg 55%
    14:00 +19°C° 0 mm 3 mps 541 mmHg 51%
    15:00 +19°C° 0 mm 3 mps 541 mmHg 53%
    16:00 +18°C° 0 mm 3 mps 540 mmHg 54%
    17:00 +18°C° 0 mm 3 mps 540 mmHg 56%
    18:00 +17°C° 0 mm 3 mps 540 mmHg 59%
    19:00 +16°C° 0 mm 2 mps 540 mmHg 63%
    20:00 +16°C° 0 mm 2 mps 540 mmHg 67%
    21:00 +15°C° 0 mm 2 mps 540 mmHg 69%
    22:00 +15°C° 0 mm 2 mps 540 mmHg 72%
    23:00 +14°C° 0 mm 2 mps 541 mmHg 75%

    20 Noviembre, Martes

    Tiempo Temperatura Precipitaciones Viento Presión Humedad
    00:00 +14°C° 0 mm 1 mps 540 mmHg 77%
    01:00 +13°C° 0 mm 1 mps 540 mmHg 80%
    02:00 +13°C° 0 mm 1 mps 539 mmHg 82%
    03:00 +13°C° 0 mm 1 mps 539 mmHg 83%
    04:00 +13°C° 0 mm 1 mps 539 mmHg 84%
    05:00 +12°C° 0 mm 1 mps 539 mmHg 85%
    06:00 +13°C° 0 mm 1 mps 540 mmHg 82%
    07:00 +14°C° 0 mm 1 mps 540 mmHg 79%
    08:00 +14°C° 0 mm 1 mps 541 mmHg 76%
    09:00 +15°C° 0 mm 1 mps 541 mmHg 70%
    10:00 +17°C° 0 mm 2 mps 542 mmHg 65%
    11:00 +18°C° 0 mm 2 mps 542 mmHg 60%
    12:00 +18°C° 0 mm 3 mps 542 mmHg 59%
    13:00 +19°C° 0 mm 3 mps 541 mmHg 58%
    14:00 +19°C° 0 mm 4 mps 541 mmHg 57%
    15:00 +18°C° 0.1 mm 4 mps 541 mmHg 59%
    16:00 +18°C° 0.1 mm 3 mps 540 mmHg 61%
    17:00 +17°C° 0.1 mm 3 mps 540 mmHg 64%
    18:00 +17°C° 0.1 mm 3 mps 540 mmHg 67%
    19:00 +16°C° 0.1 mm 2 mps 541 mmHg 70%
    20:00 +15°C° 0.1 mm 2 mps 541 mmHg 74%
    21:00 +15°C° 0.2 mm 2 mps 541 mmHg 76%
    22:00 +15°C° 0.2 mm 2 mps 541 mmHg 78%
    23:00 +14°C° 0.2 mm 2 mps 542 mmHg 80%
    Mostrar más